Regional Weather Roundup
Issued by NWS

Home | Current Version | Previous Version | Text Only | Print | Product List | Glossary On
Versions: 1 2 3 4 5 6 7 8 9 10 11 12 13 14 15 16 17 18 19 20 21 22 23 24 25 26 27 28 29 30 31 32 33 34 35 36 37 38 39 40 41 42 43 44 45 46 47 48 49 50
000
ASUS43 KBIS 020510
RWRND

NORTH DAKOTA REGIONAL WEATHER ROUNDUP
NATIONAL WEATHER SERVICE BISMARCK ND
1200 AM CDT SUN AUG 02 2015

NOTE: "FAIR" INDICATES FEW OR NO CLOUDS BELOW 12,000 FEET WITH NO
SIGNIFICANT WEATHER AND/OR OBSTRUCTIONS TO VISIBILITY.


NDZ001>003-009>011-017-020600-
NORTHWEST NORTH DAKOTA

CITY           SKY/WX    TMP DP  RH WIND       PRES   REMARKS
WILLISTON      CLEAR     71  54  54 N15       29.85R
MINOT          CLEAR     68  54  60 NW20      29.74R
MINOT AFB      CLEAR     70  57  63 N15G23    29.74R
$$

NDZ018>021-031>035-040>046-020600-
SOUTHWEST NORTH DAKOTA

CITY           SKY/WX    TMP DP  RH WIND       PRES   REMARKS
BISMARCK       CLEAR     72  60  66 W6        29.75R
DICKINSON      CLEAR     65  42  43 W6        29.83R
GARRISON         N/A     70  53  54 W14       29.72R
HETTINGER ARPT CLEAR     64  42  44 NW3       29.86S
$$

NDZ004>008-012>016-024-026-027-054-020600-
NORTHEAST NORTH DAKOTA

CITY           SKY/WX    TMP DP  RH WIND       PRES   REMARKS
GRAND FORKS    PTCLDY    69  61  75 S6        29.63F
GRND FRKS AFB  PTCLDY    67  63  86 SW7       29.65F
DEVILS LAKE    PTCLDY    68  61  77 S3        29.68F
$$

NDZ022-023-025-028>030-036>039-047>053-020600-
SOUTHEAST NORTH DAKOTA

CITY           SKY/WX    TMP DP  RH WIND       PRES   REMARKS
FARGO          CLEAR     73  66  78 SE7       29.65F
JAMESTOWN      PTCLDY    71  66  84 S6        29.69S
$$



USA.gov is the U.S. government's official web portal to all federal, state and local government web resources and services.